{"data":{"norad_id":64226,"epoch":"2026-09-20T11:46:07.040064Z","epoch_age_seconds":138531,"freshness":"FRESH","line1":"1 64226U 25117Z   26263.49035926  .00023033  00000+0  69044-3 0  9999","line2":"2 64226  53.1565 211.7185 0000466  88.9042 271.2014 15.34413727 74396","mean_motion":15.34413727,"eccentricity":4.66e-5,"inclination_deg":53.1565,"raan_deg":211.7185,"arg_perigee_deg":88.9042,"mean_anomaly_deg":271.2014,"bstar":0.00069044,"rev_number":7439,"period_min":93.846918511046,"perigee_km":462.34365972049,"apogee_km":462.98122222838,"semimajor_km":6840.7994409744,"source":"CELESTRAK","updated_at":"2026-09-21T09:00:35.275090Z"}}